GW2845 Weather Reports


Display with metric or nautical units.
time (UTC)temp
F
wind
direction
speed
MPH
gust
MPH
rain 1hr
in
rain 24hr
in
rain mn
in
humidity
%
barometer
mb
20260507105047 52 354 2.0 6.0 0.00 0.02 0.00 76 1014.6
20260507104054 52 321 3.0 6.0 0.00 0.03 0.00 77 1014.6
20260507103111 51 357 3.0 7.0 0.00 0.03 0.00 79 1014.6
20260507102054 52 334 4.0 7.0 0.00 0.04 0.00 80 1014.5
20260507101042 51 349 3.0 6.0 0.00 0.04 0.00 81 1014.6
20260507100048 50 333 2.0 5.0 0.00 0.05 0.00 84 1014.3
20260507095128 51 352 1.0 5.0 0.00 0.05 0.00 84 1014.4
20260507094024 50 281 1.0 3.0 0.00 0.05 0.00 85 1014.2
20260507093107 49 315 4.0 6.0 0.00 0.06 0.00 86 1014.2
20260507092115 50 324 1.0 5.0 0.00 0.07 0.00 85 1014.1
20260507091029 50 321 0.0 1.0 0.00 0.08 0.00 86 1014.1
20260507090037 48 293 1.0 5.0 0.00 0.09 0.00 88 1014.1
20260507085023 48 318 1.0 3.0 0.00 0.11 0.00 89 1014.1
20260507083607 48 0.0 0.0 0.00 0.12 0.00 88 1013.6
20260507082618 48 299 0.0 2.0 0.00 0.13 0.00 88 1013.5
20260507081620 48 276 0.0 1.0 0.00 0.14 0.00 89 1013.5
20260507080555 48 298 0.0 2.0 0.00 0.15 0.00 89 1013.4
20260507075543 48 286 0.0 2.0 0.00 0.16 0.00 89 1013.1
20260507074621 47 345 1.0 2.0 0.00 0.17 0.00 89 1013.1
20260507073555 47 249 1.0 5.0 0.00 0.18 0.00 90 1013.2
20260507072534 47 330 1.0 5.0 0.00 0.19 0.00 90 1013.2
20260507071621 47 329 1.0 3.0 0.00 0.21 0.00 91 1013.1
20260507070557 47 307 1.0 3.0 0.00 0.22 0.00 91 1013.1
20260507065632 47 332 0.0 2.0 0.00 0.23 0.00 91 1012.9
20260507064607 47 290 1.0 2.0 0.00 0.24 0.00 91 1012.9
20260507063536 47 0.0 0.0 0.00 0.25 0.00 91 1012.7
20260507062616 47 0.0 0.0 0.00 0.26 0.00 90 1012.6
20260507061620 47 303 0.0 1.0 0.00 0.27 0.00 91 1012.5
20260507060627 47 0.0 0.0 0.00 0.29 0.00 90 1012.2
20260507055611 46 292 0.0 1.0 0.00 0.30 0.00 91 1012.3
20260507054558 46 331 0.0 3.0 0.00 0.31 0.00 91 1012.0
20260507053551 46 304 0.0 2.0 0.00 0.32 0.00 91 1012.0
20260507052620 46 323 0.0 1.0 0.00 0.33 0.00 91 1011.9
20260507051620 46 295 1.0 3.0 0.00 0.33 0.00 91 1011.9
20260507050533 46 274 0.0 1.0 0.00 0.33 0.00 91 1011.8
20260507045621 46 298 1.0 3.0 0.00 0.33 0.00 91 1011.6
20260507044606 46 296 1.0 2.0 0.00 0.33 0.00 91 1011.6
20260507043554 46 325 1.0 3.0 0.00 0.34 0.00 91 1011.4
20260507042722 46 338 0.0 1.0 0.00 0.34 0.00 91 1011.6
20260507041714 46 329 1.0 5.0 0.00 0.35 0.00 92 1011.3
20260507040557 46 314 1.0 3.0 0.00 0.36 0.00 92 1011.1
20260507035552 46 323 2.0 5.0 0.00 0.36 0.00 93 1011.1
20260507034639 46 297 0.0 2.0 0.00 0.37 0.00 93 1010.9
20260507033613 46 335 2.0 6.0 0.00 0.38 0.00 94 1010.9
20260507032629 46 276 0.0 3.0 0.00 0.39 0.00 95 1011.1
20260507031636 46 0.0 0.0 0.00 0.39 0.00 95 1010.9
20260507030640 45 320 0.0 2.0 0.00 0.40 0.00 95 1010.9
20260507025613 46 259 0.0 1.0 0.00 0.41 0.00 94 1010.8
20260507024647 46 0.0 0.0 0.00 0.41 0.00 94 1010.8
20260507023607 46 282 1.0 3.0 0.00 0.41 0.00 94 1010.7
20260507022645 46 324 2.0 5.0 0.00 0.41 0.00 94 1010.5
20260507021608 45 259 1.0 2.0 0.00 0.41 0.00 94 1010.6
20260507020645 46 284 1.0 2.0 0.00 0.41 0.00 94 1010.6
20260507015540 46 298 1.0 3.0 0.00 0.41 0.00 94 1010.7
20260507014630 46 14 1.0 5.0 0.00 0.41 0.00 94 1010.7
20260507013630 46 280 1.0 3.0 0.00 0.41 0.00 94 1010.5
20260507012637 46 10 1.0 5.0 0.00 0.41 0.00 94 1010.3
20260507011652 46 298 2.0 3.0 0.00 0.41 0.00 95 1010.4
20260507010611 46 321 1.0 3.0 0.00 0.41 0.00 95 1010.3
20260507005619 46 290 1.0 5.0 0.00 0.41 0.00 95 1010.0
20260507004700 46 334 1.0 3.0 0.00 0.41 0.00 95 1010.0
20260507003627 46 297 1.0 3.0 0.00 0.41 0.00 95 1010.0
20260507002607 46 306 1.0 3.0 0.00 0.41 0.00 94 1009.8
20260507001707 46 282 2.0 6.0 0.00 0.41 0.00 95 1009.6
20260507000637 46 302 1.0 5.0 0.00 0.41 0.00 96 1009.6
20260506235553 46 311 2.0 5.0 0.00 0.41 0.00 95 1009.7
20260506234639 47 292 0.0 2.0 0.00 0.41 0.00 96 1009.7
20260506233629 47 0.0 0.0 0.00 0.41 0.00 95 1009.7
20260506232552 47 284 0.0 1.0 0.00 0.41 0.00 95 1009.6
20260506231718 47 317 0.0 1.0 0.00 0.41 0.00 94 1009.6
20260506230647 47 299 1.0 3.0 0.00 0.41 0.00 94 1009.5
20260506225645 48 302 1.0 2.0 0.00 0.41 0.00 95 1009.3
20260506224641 48 354 2.0 3.0 0.00 0.41 0.00 95 1009.4
20260506223550 48 346 2.0 6.0 0.00 0.41 0.00 96 1009.3
20260506222718 48 311 1.0 5.0 0.00 0.41 0.00 96 1009.1
20260506221620 48 352 1.0 3.0 0.00 0.41 0.00 97 1009.1
20260506220630 48 291 0.0 3.0 0.00 0.41 0.00 97 1009.1
20260506215733 48 303 1.0 2.0 0.00 0.41 0.41 97 1009.3
20260506214554 49 308 1.0 2.0 0.00 0.41 0.41 97 1009.2
20260506213627 49 270 2.0 6.0 0.00 0.41 0.41 96 1008.9
20260506212612 49 312 1.0 2.0 0.00 0.41 0.41 96 1008.8
20260506211545 49 360 0.0 1.0 0.00 0.41 0.41 96 1008.9
20260506210646 49 257 1.0 2.0 0.00 0.41 0.41 96 1008.9
20260506205604 49 286 2.0 6.0 0.00 0.41 0.41 96 1008.8
20260506204556 49 328 2.0 7.0 0.00 0.41 0.41 97 1008.8
20260506203637 49 286 1.0 3.0 0.00 0.41 0.41 97 1008.7
20260506202610 49 281 1.0 3.0 0.00 0.41 0.41 97 1008.8
20260506201600 49 299 0.0 2.0 0.00 0.41 0.41 97 1008.8
20260506200649 49 293 1.0 3.0 0.00 0.41 0.41 97 1008.8
20260506195647 49 283 0.0 1.0 0.00 0.41 0.41 97 1008.6
20260506194631 49 263 1.0 2.0 0.00 0.41 0.41 97 1008.3
20260506193653 49 316 1.0 2.0 0.00 0.41 0.41 97 1008.3
20260506192615 50 333 2.0 5.0 0.00 0.41 0.41 97 1008.2
20260506191641 50 326 2.0 5.0 0.00 0.41 0.41 96 1008.1
20260506190606 50 291 3.0 6.0 0.00 0.41 0.41 96 1007.9
20260506185603 50 290 1.0 2.0 0.00 0.41 0.41 97 1007.8
20260506184729 50 314 3.0 7.0 0.00 0.41 0.41 96 1007.6
20260506183641 50 330 2.0 3.0 0.00 0.41 0.41 97 1007.5
20260506182633 50 324 2.0 6.0 0.00 0.41 0.41 97 1007.4
20260506181731 51 336 3.0 7.0 0.00 0.41 0.41 96 1007.4
20260506180649 51 2 3.0 6.0 0.00 0.41 0.41 96 1007.4
20260506175612 51 342 3.0 6.0 0.00 0.41 0.41 96 1007.4
20260506174607 52 307 2.0 5.0 0.00 0.41 0.41 95 1007.4
20260506173713 52 298 1.0 5.0 0.00 0.41 0.41 95 1007.4
20260506172608 52 332 1.0 6.0 0.00 0.41 0.41 95 1007.1
20260506171652 52 336 0.0 2.0 0.00 0.41 0.41 95 1007.1
20260506170621 52 317 2.0 5.0 0.00 0.41 0.41 95 1006.9
20260506165619 52 277 2.0 3.0 0.00 0.41 0.41 95 1006.8
20260506164629 53 329 2.0 5.0 0.00 0.41 0.41 95 1006.9
20260506163609 53 276 1.0 2.0 0.00 0.41 0.41 94 1007.0
20260506162615 53 296 1.0 5.0 0.00 0.41 0.41 93 1006.8
20260506161650 54 180 1.0 3.0 0.00 0.41 0.41 93 1006.6
20260506160606 53 305 1.0 3.0 0.00 0.41 0.41 94 1007.0
20260506155628 54 324 1.0 2.0 0.00 0.41 0.41 94 1006.9
20260506154619 53 338 2.0 5.0 0.00 0.41 0.41 93 1007.0
20260506153723 54 342 4.0 6.0 0.00 0.41 0.41 93 1006.9
20260506152558 54 320 2.0 5.0 0.00 0.41 0.41 93 1006.8
20260506151703 54 338 1.0 5.0 0.00 0.41 0.41 93 1006.9
20260506150622 54 285 2.0 6.0 0.00 0.41 0.41 93 1006.8
20260506145710 54 338 2.0 5.0 0.00 0.41 0.41 93 1006.9
20260506144656 55 353 3.0 6.0 0.00 0.41 0.41 94 1006.8
20260506143545 55 336 1.0 3.0 0.00 0.41 0.41 95 1006.8
20260506142625 54 282 1.0 3.0 0.00 0.41 0.41 95 1006.9
20260506141538 54 333 2.0 5.0 0.00 0.41 0.41 95 1006.9
20260506140614 55 332 3.0 6.0 0.00 0.41 0.41 96 1006.9
20260506135626 54 307 2.0 6.0 0.00 0.41 0.41 97 1006.7
20260506134619 54 319 1.0 3.0 0.00 0.41 0.41 98 1006.7
20260506133605 54 358 1.0 2.0 0.00 0.41 0.41 99 1007.0
20260506132651 54 309 1.0 5.0 0.00 0.41 0.41 99 1006.7
20260506131638 53 37 0.0 2.0 0.00 0.41 0.41 99 1006.8
20260506130550 53 318 1.0 3.0 0.00 0.41 0.41 99 1006.6
20260506125630 53 270 1.0 3.0 0.00 0.41 0.41 99 1006.9
20260506124612 53 288 1.0 5.0 0.00 0.41 0.41 99 1006.9
20260506123554 53 351 2.0 5.0 0.01 0.41 0.41 99 1006.8
20260506122147 53 291 0.0 2.0 0.01 0.41 0.41 99 1006.8
20260506121047 52 299 1.0 5.0 0.01 0.41 0.41 99 1006.6
20260506120150 52 293 1.0 3.0 0.02 0.41 0.41 99 1006.5
20260506115102 52 319 1.0 3.0 0.02 0.41 0.41 99 1006.5
20260506114118 52 341 2.0 6.0 0.02 0.40 0.40 99 1006.4
20260506113105 52 348 2.0 5.0 0.02 0.40 0.40 99 1006.4
20260506112139 52 321 4.0 6.0 0.03 0.40 0.40 99 1006.5
20260506111116 52 308 2.0 3.0 0.03 0.40 0.40 99 1006.5
20260506110140 51 274 0.0 2.0 0.03 0.39 0.39 99 1006.5